Content
SEND FEEDBACK

Daily
Averages
Monthly
Summary
United Kingdom

NEWTOWN, ENGLAND


Home > Europe > United Kingdom > England
Elevation: 36 feet     Latitude: 50 46N     Longitude: 001 49W

WEATHER
 
SELECT A DAY
Number of Records: 252,671;   Date Range: 7/1/96 - 7/26/14
 
SHARE

PRINT THIS DATA

[ ← Previous Day ]
WEATHER ALMANAC - JUNE 7, 2014
[ Next Day → ]
[ °C ]   °F
Weather ElementAverageHighLow
Temperature63 °F68 °F (12:50 pm)53.6 °F (11:20 pm)
Dewpoint55.4 °F59 °F (4:20 am)50 °F (12:20 pm)
Humidity75.3 %100 % (6:50 am)49 % (2:00 pm)
Barometer29.87 in30.01 in (10:50 pm)29.76 in (4:00 am)
Wind Speed8 mph13.8 mph (10:00 am)
Weather ElementAverage
Visibility7.9 mi
Wind DirectionSSW (193.2 °)

Weather ElementTotal
Precipitation---
Heating Degree Days4.2 (Base 65)
Growing Degree Days10.8 (Base 50)
Averaged from 69 records on June 7, 2014
WEATHER CONDITIONS BREAKOUT
WIND DIRECTION BREAKOUT
WEATHER BY HOUR - JUNE 7, 2014
[ °C ]   °F
Local TimeTemperatureDewpointHumidityBarometerVisibilityWind DirectionWind SpeedGust SpeedPrecipitationEventsConditions
12:20 AM66.2 °F55.4 °F68 %29.77 inEast (90°)12.7 mphClear
12:50 AM66.2 °F55.4 °F68 %29.77 inEast (100°)12.7 mphClear
1:00 AM65.0 °F55.0 °F63 %29.78 in13.0 miEast (100°)10.4 mphMostly Cloudy
1:20 AM64.4 °F55.4 °F73 %29.77 inSE (130°)6.9 mphClear
1:50 AM64.4 °F55.4 °F73 %29.77 inEast (90°)4.6 mphClear
2:00 AM65.0 °F56.0 °F65 %29.78 in16.0 miESE (110°)2.3 mphMostly Cloudy
2:20 AM64.4 °F57.2 °F77 %29.77 inESE (120°)5.8 mphClear
2:50 AM64.4 °F57.2 °F77 %29.77 inESE (120°)4.6 mphClear
3:00 AM64.0 °F56.0 °F70 %29.78 in16.0 miESE (120°)4.6 mphOvercast
3:20 AM62.6 °F57.2 °F82 %29.77 in6.2 miSSE (160°)4.6 mphRainLight Rain
4:00 AM62.0 °F58.0 °F84 %29.76 in11.0 miEast (100°)3.5 mphRainRain
4:20 AM62.6 °F59.0 °F88 %29.77 in6.2 miSSE (160°)11.5 mphRain-ThunderstormThunderstorms and Rain
4:50 AM60.8 °F57.2 °F88 %29.80 in6.2 miSE (140°)11.5 mphPartly Cloudy
5:00 AM61.0 °F58.0 °F85 %29.81 in7.0 miSouth (170°)11.5 mphRainRain
5:20 AM60.8 °F57.2 °F88 %29.77 in5.0 miSE (140°)2.3 mphRainLight Rain
5:50 AM60.8 °F57.2 °F88 %29.77 in4.3 miSE (140°)2.3 mphPartly Cloudy
6:00 AM60.0 °F58.0 °F90 %29.78 in5.0 miSSW (200°)3.5 mphRainRain
6:20 AM59.0 °F57.2 °F94 %29.77 in4.3 miSSE (160°)2.3 mphPartly Cloudy
6:50 AM59.0 °F59.0 °F100 %29.77 in3.1 miNW (320°)5.8 mphPartly Cloudy
7:00 AM59.0 °F58.0 °F96 %29.77 in3.0 miNNW (340°)4.6 mphRainRain
7:20 AM59.0 °F59.0 °F100 %29.77 in3.1 miNE (50°)3.5 mphPartly Cloudy
7:50 AM60.8 °F59.0 °F94 %29.77 in3.1 miEast (100°)3.5 mphPartly Cloudy
8:00 AM60.0 °F59.0 °F95 %29.79 in5.0 miESE (120°)2.3 mphMist
8:20 AM60.8 °F59.0 °F94 %29.77 in3.7 miWest (260°)9.2 mphScattered Clouds
8:50 AM60.8 °F59.0 °F94 %29.83 in3.7 miSW (230°)10.4 mphRain-ThunderstormRain Showers
9:00 AM61.0 °F59.0 °F92 %29.84 in3.0 miSW (230°)10.4 mphRainRain Showers
9:20 AM60.8 °F59.0 °F94 %29.86 in4.3 miWSW (240°)9.2 mphScattered Clouds
9:50 AM60.8 °F55.4 °F82 %29.86 in6.2 miWest (260°)12.7 mphScattered Clouds
10:00 AM60.0 °F56.0 °F82 %29.87 in12.0 miWest (260°)13.8 mphRainRain
10:20 AM62.6 °F55.4 °F77 %29.86 in6.2 miWest (270°)10.4 mphScattered Clouds
10:50 AM62.6 °F55.4 °F77 %29.86 in6.2 miWest (270°)10.4 mphPartly Cloudy
11:00 AM63.0 °F57.0 °F74 %29.87 in15.0 miWest (270°)4.6 mphMostly Cloudy
11:20 AM64.4 °F55.4 °F73 %29.89 in6.2 miWest (270°)6.9 mphPartly Cloudy
11:50 AM64.4 °F55.4 °F73 %29.89 in6.2 miWSW (250°)11.5 mphPartly Cloudy
12:00 PM65.0 °F56.0 °F64 %29.90 in15.0 miWSW (250°)11.5 mphScattered Clouds
12:20 PM64.4 °F50.0 °F59 %29.89 in6.2 miWSW (250°)12.7 mphPartly Cloudy
12:50 PM68.0 °F53.6 °F60 %29.89 in6.2 miWSW (240°)13.8 mphPartly Cloudy
1:00 PM67.0 °F53.0 °F52 %29.91 in16.0 miSW (230°)12.7 mphPartly Cloudy
1:20 PM68.0 °F51.8 °F56 %29.89 in6.2 miSW (230°)11.5 mphPartly Cloudy
1:50 PM68.0 °F53.6 °F60 %29.89 in6.2 miWSW (250°)10.4 mphPartly Cloudy
2:00 PM67.0 °F52.0 °F49 %29.91 in15.0 miWSW (250°)10.4 mphScattered Clouds
2:20 PM68.0 °F57.2 °F68 %29.89 in6.2 miWSW (250°)11.5 mphPartly Cloudy
2:50 PM68.0 °F53.6 °F60 %29.92 in6.2 miWSW (250°)11.5 mphPartly Cloudy
3:00 PM68.0 °F55.0 °F53 %29.92 in13.0 miWSW (250°)12.7 mphScattered Clouds
3:20 PM68.0 °F53.6 °F60 %29.92 in6.2 miWSW (250°)12.7 mphPartly Cloudy
3:50 PM66.2 °F53.6 °F64 %29.92 in6.2 miWSW (250°)11.5 mphPartly Cloudy
4:00 PM67.0 °F55.0 °F56 %29.93 in12.0 miWSW (250°)10.4 mphScattered Clouds
4:20 PM66.2 °F53.6 °F64 %29.92 in6.2 miWSW (240°)11.5 mphPartly Cloudy
4:50 PM64.4 °F55.4 °F73 %29.92 in6.2 miWSW (240°)11.5 mphPartly Cloudy
5:00 PM65.0 °F54.0 °F60 %29.94 in12.0 miSW (230°)10.4 mphScattered Clouds
5:20 PM66.2 °F53.6 °F64 %29.95 in6.2 miWSW (250°)11.5 mphPartly Cloudy
5:50 PM66.2 °F55.4 °F68 %29.95 in6.2 miWSW (250°)9.2 mphPartly Cloudy
6:00 PM66.0 °F54.0 °F57 %29.96 in13.0 miWSW (240°)8.1 mphScattered Clouds
6:20 PM66.2 °F53.6 °F64 %29.95 in6.2 miWest (260°)10.4 mphPartly Cloudy
6:50 PM64.4 °F53.6 °F68 %29.95 in6.2 miSW (220°)8.1 mphPartly Cloudy
7:00 PM65.0 °F54.0 °F59 %29.96 in13.0 miSW (230°)6.9 mphScattered Clouds
7:20 PM64.4 °F51.8 °F64 %29.95 inSW (220°)6.9 mphClear
7:50 PM64.4 °F53.6 °F68 %29.98 inSouth (180°)6.9 mphClear
8:00 PM63.0 °F54.0 °F63 %29.98 in12.0 miSouth (180°)6.9 mph
8:20 PM62.6 °F53.6 °F72 %29.98 inSouth (170°)5.8 mphClear
8:50 PM60.8 °F53.6 °F77 %29.98 inSSE (160°)5.8 mphClear
9:00 PM61.0 °F54.0 °F71 %29.99 in11.0 miSSE (150°)5.8 mph
9:20 PM59.0 °F53.6 °F82 %29.98 inSouth (170°)3.5 mphClear
9:50 PM57.2 °F53.6 °F88 %29.98 inEast (80°)2.3 mphClear
10:00 PM56.0 °F53.0 °F86 %30.00 in9.0 miENE (70°)4.6 mphScattered Clouds
10:20 PM57.2 °F53.6 °F88 %29.98 inSE (140°)3.5 mphClear
10:50 PM55.4 °F53.6 °F94 %30.01 inSE (130°)3.5 mphClear
11:00 PM55.0 °F53.0 °F90 %30.01 in9.0 miESE (120°)3.5 mphScattered Clouds
11:20 PM53.6 °F51.8 °F94 %30.01 inESE (110°)2.3 mphClear
Hourly data recorded from EGHH, located miles away from Newtown, England







STORIES FROM OUR PARTNERS